BREEZE-M R/B

基本信息
目录编号:
42935
目录名称:
BREEZE-M R/B
国际标识:
2017-053B
轨道中心:
EARTH
物体状态:
在轨
发射日期:
2017-09-11 UTC
国别:
俄罗斯(独联体) (CIS)
轨道信息
数据来源: 国际轨道数据
星历时间: 2026-07-13T14:49:05+0800
半长轴: 25037.562km
偏心率: 0.5940632
轨道倾角: 23.474°
近地点辐角: 333.689°
升交点赤经: 48.245°
平近点角: 5.572°
近地点: 3785.53km
远地点: 33533.32km
周期: 657.125分钟
每日圈数: 2.191365
详细信息
发射场:
TTMTR
轨道高度:
MEO
数据来源:
AOE Integration Group
参考系:
TEME
时间系统:
UTC
历元类型:
SGP4
2D轨道图
3D轨道图
轨道高度分析图
轨道倾角分析图
轨道综合分析图
查看轨道综合分析图